Location: Amsterdam
(30.7274°N, 84.4357°W)
Time: 14:58:36
(UTC+00:00)

Vanguard 1 Rocket - Pass Details

Date: 16 February 2026
Orbit: 653 x 4214 km, 34.3° (Epoch: 6 March)

Event Time Altitude Azimuth Distance (km) Brightness Sun altitude
Rises 23:35:58 0° 287° (WNW) 6,101 12.8 -2.8°
Reaches altitude 10° 23:39:15 10° 287° (WNW) 5,456 12.5 -3.5°
Maximum altitude 23:58:06 83° 203° (SSW) 3,888 10.6 -7.5°
Drops below altitude 10° 00:24:44 10° 119° (ESE) 7,245 11.5 -13.1°
Sets 00:29:58 0° 119° (ESE) 8,066 11.7 -14.2°
